Content
SEND FEEDBACK

Daily
Averages
Monthly
Summary
United States of America

CLAREMONT - POMONA COLLEGE, CALIFORNIA


Home > North America > United States > California
Elevation: 1200 feet     Latitude: 34 06N     Longitude: 117 43W

WEATHER
 
SELECT A DAY
Number of Records: 183,878;   Date Range: 1/1/95 - 12/19/14
 
SHARE

PRINT THIS DATA

[ ← Previous Day ]
WEATHER ALMANAC - JANUARY 3, 2013
[ Next Day → ]
[ °C ]   °F
Weather ElementAverageHighLow
Temperature57 °F75 °F (9:53 am)41 °F (9:53 pm)
Dewpoint20.9 °F28 °F (7:53 pm)12 °F (11:53 am)
Humidity27.6 %57 % (9:53 pm)13 % (9:53 am)
Barometer30.10 in30.19 in (11:53 pm)30.04 in (3:53 am)
Wind Speed3.4 mph11.5 mph (10:53 am)
Weather ElementAverage
Visibility10 mi
Wind DirectionSSE (160 °)

Weather ElementTotal
Precipitation---
Heating Degree Days7 (Base 65)
Growing Degree Days8 (Base 50)
Averaged from 23 records on January 3, 2013
WEATHER CONDITIONS BREAKOUT
WIND DIRECTION BREAKOUT
WEATHER BY HOUR - JANUARY 3, 2013
[ °C ]   °F
Local TimeTemperatureDewpointHumidityBarometerVisibilityWind DirectionWind SpeedGust SpeedPrecipitationEventsConditions
1:53 AM46.0 °F21.0 °F37 %30.06 in10.0 miEast (100°)4.6 mphClear
2:53 AM44.1 °F25.0 °F47 %30.06 in10.0 miCalmClear
3:53 AM51.1 °F23.0 °F33 %30.04 in10.0 miNW (310°)5.8 mphClear
4:53 AM55.9 °F21.9 °F27 %30.04 in10.0 miCalmClear
5:53 AM48.9 °F19.9 °F32 %30.08 in10.0 miCalmClear
6:53 AM50.0 °F21.9 °F33 %30.09 in10.0 miNorth (360°)8.1 mphClear
7:53 AM66.9 °F19.0 °F16 %30.10 in10.0 miCalmClear
8:53 AM71.1 °F21.9 °F16 %30.11 in10.0 miWest (270°)3.5 mphClear
9:53 AM75.0 °F21.0 °F13 %30.12 in10.0 miWSW (250°)3.5 mphClear
10:53 AM62.8 °F17.1 °F17 %30.12 in10.0 miWest (270°)11.5 mphClear
11:53 AM64.9 °F12.0 °F13 %30.10 in10.0 miCalmClear
12:53 PM66.0 °F14.0 °F13 %30.07 in10.0 miWest (270°)4.6 mphClear
1:53 PM68.0 °F17.1 °F14 %30.06 in10.0 miWest (280°)4.6 mphClear
2:53 PM68.0 °F17.1 °F14 %30.08 in10.0 miWNW (290°)6.9 mphClear
3:53 PM66.0 °F24.1 °F20 %30.08 in10.0 miWest (270°)5.8 mphClear
4:53 PM62.1 °F19.9 °F20 %30.09 in10.0 miCalmClear
5:53 PM62.1 °F18.0 °F18 %30.11 in10.0 miCalmClear
6:53 PM54.0 °F25.0 °F33 %30.13 in10.0 miCalmClear
7:53 PM50.0 °F28.0 °F43 %30.13 in10.0 miNNE (30°)3.5 mphClear
8:53 PM46.9 °F26.1 °F44 %30.14 in10.0 miNNW (330°)3.5 mphClear
9:53 PM41.0 °F27.0 °F57 %30.16 in10.0 miNW (310°)3.5 mphClear
10:53 PM48.0 °F18.0 °F30 %30.17 in10.0 miNNW (340°)3.5 mphClear
11:53 PM43.0 °F23.0 °F45 %30.19 in10.0 miVariable4.6 mphClear
Hourly data recorded from KONT, located miles away from Claremont - Pomona College, California







STORIES FROM OUR PARTNERS